User: anonymous   Login
Location: Eferding
(48.3167°N, 14.0167°E)
Time: 21:25:35
(UTC+00:00)
Language:

Meteor 2-20 - Orbit

View from above orbital plane
View from above orbital plane
View from above satellite
View from above satellite

Ground track
Ground track

The orbit data is extracted from the following two-line orbital elements,

1 20826U 90086A   20020.58354471 -.00000005 +00000-0 -17946-4 0  9990
2 20826 082.5240 261.9123 0014446 107.9918 252.2817 13.84243514480621
Epoch (UTC): 20 January 2020 14:00:18
Eccentricity: 0.0014446
inclination: 82.5240°
perigee height: 938 km
apogee height: 959 km
right ascension of ascending node: 261.9123°
argument of perigee: 107.9918°
revolutions per day: 13.84243514
mean anomaly at epoch: 252.2817°
orbit number at epoch: 48062

The dashed part of the orbit path shows where the satellite is in the earth's shadow,  

DLR